Regional Weather Roundup
Issued by NWS

Home | Current Version | Previous Version | Graphics & Text | Print | Product List | Glossary On
Versions: 1 2 3 4 5 6 7 8 9 10 11 12 13 14 15 16 17 18 19 20 21 22 23 24 25 26 27 28 29 30 31 32 33 34 35 36 37 38 39 40 41 42 43 44 45 46 47 48 49 50
000
ASUS43 KLMK 171210
RWRKY
KENTUCKY REGIONAL WEATHER ROUNDUP
NATIONAL WEATHER SERVICE LOUISVILLE KY
700 AM EST TUE JAN 17 2017

NOTE "FAIR" INDICATES FEW OR NO CLOUDS BELOW 12,000 FEET
WITH NO SIGNIFICANT WEATHER AND/OR OBSTRUCTIONS TO VISIBILITY.

KYZ001>023-026-027-061>063-070>075-171300-
WESTERN AND SOUTH CENTRAL KENTUCKY

CITY           SKY/WX    TMP DP  RH WIND       PRES   REMARKS
PADUCAH        PTCLDY    55  48  77 W12       29.96R
HENDERSON      MOCLDY    57  54  88 SW13      29.92R
OWENSBORO      CLOUDY    60  57  89 SW8       29.93
HOPKINSVILLE   CLOUDY    63  63 100 SW12      29.96R
BOWLING GREEN  CLOUDY    63  60  90 SW13      29.97R
GLASGOW        CLOUDY    61  61 100 SW13G21   29.97S
$$

KYZ024-025-028>034-038-045-046-053-171300-
NORTH CENTRAL KENTUCKY

CITY           SKY/WX    TMP DP  RH WIND       PRES   REMARKS
LOUISVILLE/SDF MOCLDY    62  56  80 SW10      29.91S
LOUISVILLE/LOU CLOUDY    61  57  87 SW7       29.92S
FORT KNOX      CLOUDY    60  59  99 S12       29.92S
$$

KYZ035>037-039>044-047>052-055>060-089>105-171300-
NORTHEAST KENTUCKY

CITY           SKY/WX    TMP DP  RH WIND       PRES   REMARKS
LEXINGTON      LGT RAIN  58  56  93 S12       29.95F FOG
COVINGTON      CLOUDY    59  57  93 SW12G23   29.90R
FRANKFORT      CLOUDY    60  55  83 S15       29.93S
$$

KYZ054-064>069-076>088-106>120-171300-
SOUTHEAST KENTUCKY

CITY           SKY/WX    TMP DP  RH WIND       PRES   REMARKS
JACKSON        LGT RAIN  57  54  89 S8G16     30.03S FOG
LONDON         CLOUDY    57  54  89 S6        30.04F
SOMERSET       LGT RAIN  55  55 100 S5        30.05R
MIDDLESBORO    CLOUDY    58  54  86 S10G25    30.10R
MONTICELLO     RAIN      59  57  93 SE5       30.05R
$$




USA.gov is the U.S. government's official web portal to all federal, state and local government web resources and services.